Weather History for PAFA - July, 2013

Change the Weather History Date:

Sunday, July 28, 2013

  Actual Average Record
Temperature  
Mean Temperature 72 °F 61 °F  
Max Temperature 88 °F 70 °F 99 °F (1919)
Min Temperature 56 °F 51 °F 34 °F (1943)
Degree Days  
Heating Degree Days 0 5  
Month to date heating degree days 69 95  
Since 1 June heating degree days 140 255  
Since 1 July heating degree days 69 95  
Cooling Degree Days 7 0  
Month to date cooling degree days 43 29  
Year to date cooling degree days 191 53  
Since 1 June cooling degree days 178 52  
Growing Degree Days 22 (Base 50)    
Moisture  
Dew Point 53 °F    
Average Humidity 50    
Maximum Humidity 81    
Minimum Humidity 21    
Precipitation  
Precipitation 0.00 in 0.07 in 1.14 in (2008)
Month to date precipitation 1.01 1.94  
Year to date precipitation 3.78 5.47  
Snow  
Snow 0.00 in 0.00 in 0.00 in (2002)
Month to date snowfall 0.0 0.0  
Since 1 June snowfall 0.0 0.0  
Since 1 July snowfall 0.0 0.0  
Snow Depth 0.00 in    
Sea Level Pressure  
Sea Level Pressure 30.14 in    
Wind  
Wind Speed 4 mph (WNW)    
Max Wind Speed 14 mph    
Max Gust Speed 20 mph    
Visibility 10 miles    
Events      
T = Trace of Precipitation, MM = Missing Value Source: NWS Daily Summary

Daily Weather History Graph

Daily Weather History Graph

Search for Another Location

Airport or City:

Trip Planner

Search our weather history database for the weather conditions in past years. The results will help you decide how hot, cold, wet, or windy it might be!

Date:

Astronomy

Jul. 28, 2013 Rise Set
Actual Time 4:39 AM AKDT 11:14 PM AKDT
Civil Twilight 2:35 AM AKDT 1:08 AM AKDT
Nautical Twilight Sun does not set Sun does not set
Astronomical Twilight Sun does not set Sun does not set
Moon 11:22 PM AKDT (7/28) 2:45 PM AKDT (7/28)
Length of Visible Light 22h 33m
Length of Day
18h 34m
Waning Gibbous, 59% of the Moon is Illuminated
Jul 28
Waning Gibbous
Jul 29
Last Quarter
Aug 6
New
Aug 14
First Quarter
Aug 20
Full

Hourly Weather History & Observations

Time (AKDT) Temp. Heat Index Dew Point Humidity Pressure Visibility Wind Dir Wind Speed Gust Speed Precip Events Conditions
12:53 AM 66.0 °F - 53.1 °F 63% 30.20 in 10.0 mi SSW 4.6 mph - N/A   Scattered Clouds
1:53 AM 60.1 °F - 53.1 °F 78% 30.20 in 10.0 mi NNE 4.6 mph - N/A   Scattered Clouds
2:53 AM 62.1 °F - 52.0 °F 70% 30.19 in 10.0 mi Calm Calm - N/A   Scattered Clouds
3:53 AM 59.0 °F - 52.0 °F 78% 30.20 in 10.0 mi NNE 4.6 mph - N/A   Scattered Clouds
4:53 AM 57.9 °F - 52.0 °F 81% 30.20 in 10.0 mi NNE 3.5 mph - N/A   Scattered Clouds
5:53 AM 57.0 °F - 51.1 °F 81% 30.20 in 10.0 mi Calm Calm - N/A   Scattered Clouds
6:53 AM 61.0 °F - 53.1 °F 75% 30.20 in 10.0 mi Calm Calm - N/A   Scattered Clouds
7:53 AM 63.0 °F - 53.1 °F 70% 30.20 in 10.0 mi Calm Calm - N/A   Mostly Cloudy
8:53 AM 66.9 °F - 53.1 °F 61% 30.20 in 10.0 mi Calm Calm - N/A   Mostly Cloudy
9:53 AM 69.1 °F - 54.0 °F 58% 30.19 in 10.0 mi Calm Calm - N/A   Mostly Cloudy
10:53 AM 71.1 °F - 53.1 °F 53% 30.18 in 10.0 mi Calm Calm - N/A   Mostly Cloudy
11:53 AM 75.0 °F - 55.0 °F 50% 30.18 in 10.0 mi East 4.6 mph - N/A   Mostly Cloudy
12:53 PM 78.1 °F - 55.9 °F 46% 30.16 in 10.0 mi Variable 3.5 mph - N/A   Mostly Cloudy
1:53 PM 82.0 °F 81.4 °F 55.0 °F 39% 30.14 in 10.0 mi SSW 4.6 mph - N/A   Scattered Clouds
2:53 PM 84.9 °F - 52.0 °F 32% 30.12 in 10.0 mi West 5.8 mph - N/A   Scattered Clouds
3:53 PM 86.0 °F - 52.0 °F 31% 30.11 in 10.0 mi West 13.8 mph - N/A   Mostly Cloudy
4:53 PM 87.1 °F - 48.9 °F 27% 30.09 in 10.0 mi WNW 12.7 mph 19.6 mph N/A   Mostly Cloudy
5:53 PM 87.1 °F - 50.0 °F 28% 30.08 in 10.0 mi West 6.9 mph - N/A   Mostly Cloudy
6:53 PM 86.0 °F - 51.1 °F 30% 30.06 in 10.0 mi Calm Calm - N/A   Mostly Cloudy
7:53 PM 86.0 °F 84.0 °F 53.1 °F 32% 30.04 in 10.0 mi South 3.5 mph - N/A   Mostly Cloudy
8:53 PM 86.0 °F - 50.0 °F 29% 30.04 in 10.0 mi NW 4.6 mph - N/A   Mostly Cloudy
9:53 PM 78.1 °F - 54.0 °F 43% 30.04 in 10.0 mi West 3.5 mph - N/A   Mostly Cloudy
10:53 PM 79.0 °F - 52.0 °F 39% 30.04 in 10.0 mi NW 11.5 mph - N/A   Mostly Cloudy
11:53 PM 77.0 °F - 52.0 °F 42% 30.04 in 10.0 mi WNW 11.5 mph - N/A   Mostly Cloudy